Location: Arthez
(43.0833°N, 0.2500°W)
Time: 01:04:34
(UTC+00:00)

NOSS 3-1 (A) - Pass Details

Date: 04 June 2022
Orbit: 711 x 1501 km, 63.4° (Epoch: 21 May)

Event Time Altitude Azimuth Distance (km) Brightness Sun altitude
Rises 21:41:25 0° 324° (NW) 3,914 8.5 -17.1°
Reaches altitude 10° 21:43:56 10° 327° (NNW) 3,060 7.4 -17.4°
Maximum altitude 21:51:27 72° 52° (NE) 1,377 4.2 -18.1°
Enters shadow 21:57:04 25° 131° (SE) 2,542 5.1 -18.6°
